Regional Weather Roundup
Issued by NWS

Home | Current Version | Previous Version | Text Only | Print | Product List | Glossary On
Versions: 1 2 3 4 5 6 7 8 9 10 11 12 13 14 15 16 17 18 19 20 21 22 23 24 25 26 27 28 29 30 31 32 33 34 35 36 37 38 39 40 41 42 43 44 45 46 47 48 49 50
000
ASUS43 KLSX 241507
RWRMO

WEATHER SUMMARY FOR MISSOURI
NATIONAL WEATHER SERVICE SPRINGFIELD MO
1000 AM CDT FRI APR 24 2015

NOTE: "FAIR" INDICATES FEW OR NO CLOUDS BELOW 12,000 FEET WITH NO
       SIGNIFICANT WEATHER AND/OR OBSTRUCTIONS TO VISIBILITY.
       CURRENT SKY AND/OR WEATHER CONDITIONS ARE NOT AVAILABLE FOR
       CHILLICOTHE AND FARMINGTON.

MOZ001>031-035>038-043-044-053-054-241600-
...NORTHERN AND WESTERN MISSOURI...

CITY           SKY/WX    TMP DP  RH WIND       PRES   REMARKS
KANSAS CTY INT CLOUDY    57  43  59 S18G25    29.80F
KANSAS C DTWN  LGT RAIN  56  46  69 S16G26    29.83S
LEE`S SUMMIT   LGT RAIN  51  46  83 S13       29.84F
ST JOSEPH      CLOUDY    59  44  57 S15       29.80F
CHILLICOTHE      N/A     59  38  45 S15G23    29.85F
KIRKSVILLE     CLOUDY    57  39  51 SE21      29.89F

$$
MOZ066>068-077>081-088>096-101>105-241600-
...SOUTHWEST MISSOURI...

CITY           SKY/WX    TMP DP  RH WIND       PRES   REMARKS
SPRINGFIELD    LGT RAIN  51  44  77 SE15G25   29.91S
JOPLIN         CLOUDY    57  49  74 SE15G23   29.85F

$$
MOZ032>034-039>042-045>050-055>058-069>072-241600-
...CENTRAL MISSOURI...

CITY           SKY/WX    TMP DP  RH WIND       PRES   REMARKS
COLUMBIA       CLOUDY    59  38  45 S16       29.94F
JEFFERSON CITY PTSUNNY   61  36  39 SE10      29.94F
ROLLA          CLOUDY    59  35  40 S16G26    29.94F
SEDALIA        CLOUDY    60  38  43 SE15      29.90F
WHITEMAN AFB   PTSUNNY   59  40  49 S10G18    29.87F
WARRENSBURG    CLOUDY    61  41  48 SE13      29.85F
OSAGE BEACH    CLOUDY    61  34  36 S13G18    29.93S

$$
MOZ051-052-059>065-241600-
...EAST CENTRAL MISSOURI...

CITY           SKY/WX    TMP DP  RH WIND       PRES   REMARKS
ST LOUIS INTL  CLOUDY    56  32  40 SE12      30.03F
SPIRIT OF STL  CLOUDY    55  33  43 SE6       30.01F
ST CHARLES     CLOUDY    57  34  41 SE13      30.02F

$$
MOZ072>076-082>087-097>100-106>115-241600-
...SOUTH CENTRAL AND SOUTHEAST MISSOURI...

CITY           SKY/WX    TMP DP  RH WIND       PRES   REMARKS
CAPE GIRARDEAU CLOUDY    57  37  47 SE8       30.07F
FARMINGTON     CLOUDY    55  34  44 S14       30.06F
POPLAR BLUFF   CLOUDY    57  38  48 SE9       30.03F
WEST PLAINS    LGT RAIN  50  40  68 SE8       30.01S

$$


USA.gov is the U.S. government's official web portal to all federal, state and local government web resources and services.